User: anonymous   Login
Location: Unspecified
(0.0000°N, 0.0000°E)
Time: 04:41:17
(UTC+00:00)
Language:

Cosmos 1743 - Orbit

View from above orbital plane
View from above orbital plane
View from above satellite
View from above satellite

Ground track
Ground track

The orbit data is extracted from the following two-line orbital elements,

1 16719U 86034A   18018.87271747 +.00000131 +00000-0 +52726-5 0  9998
2 16719 082.5537 140.6616 0010699 257.0851 232.5029 15.15054081728070
Epoch (UTC): 18 January 2018 20:56:42
Eccentricity: 0.0010699
inclination: 82.5537°
perigee height: 513 km
apogee height: 528 km
right ascension of ascending node: 140.6616°
argument of perigee: 257.0851°
revolutions per day: 15.15054081
mean anomaly at epoch: 232.5029°
orbit number at epoch: 72807

The dashed part of the orbit path shows where the satellite is in the earth's shadow,  

DLR